This is the latest recevied weather packets stored in our database for station/object KB3KBR-WX. If no packets are shown the sender has not sent any weather packets the latest 10 day(s).
| Time | Temp. | Humidity | Pressure | Rain* | Wind** | Luminosity | Snow |
|---|---|---|---|---|---|---|---|
| 1787544925 | 12.78° C | 94% | 1011.4 hPa | 1.52 mm | - | - | - |
| 1787544595 | 12.78° C | 94% | 1011.5 hPa | 2.03 mm | - | - | - |
| 1787544295 | 12.78° C | 94% | 1011.5 hPa | 2.54 mm | - | - | - |
| 1787543965 | 12.78° C | 93% | 1011.6 hPa | 2.79 mm | - | - | - |
| 1787543710 | 12.78° C | 93% | 1011.7 hPa | 3.81 mm | - | - | - |
| 1787543635 | 12.78° C | 93% | 1011.7 hPa | 3.81 mm | - | - | - |
| 1787543306 | 12.78° C | 93% | 1011.7 hPa | 5.84 mm | - | - | - |
| 1787543013 | 12.78° C | 93% | 1011.7 hPa | 6.35 mm | - | - | - |
| 1787542975 | 12.78° C | 93% | 1011.7 hPa | 6.35 mm | - | - | - |
| 1787542645 | 12.78° C | 93% | 1011.6 hPa | 6.35 mm | - | - | - |
| 1787542315 | 12.78° C | 93% | 1011.6 hPa | 6.1 mm | - | - | - |
| 1787542015 | 12.78° C | 93% | 1011.9 hPa | 5.84 mm | - | - | - |
| 1787541685 | 12.78° C | 92% | 1012.1 hPa | 5.59 mm | - | - | - |
| 1787541385 | 12.78° C | 92% | 1012.2 hPa | 5.08 mm | - | - | - |
| 1787541055 | 12.78° C | 92% | 1012.2 hPa | 4.57 mm | - | - | - |
| 1787540755 | 12.78° C | 91% | 1012.3 hPa | 4.06 mm | - | - | - |
| 1787540456 | 13.33° C | 91% | 1012.2 hPa | 3.56 mm | - | - | - |
| 1787540125 | 13.33° C | 90% | 1011.7 hPa | 3.05 mm | - | - | - |
| 1787539795 | 13.89° C | 89% | 1011.4 hPa | 0.76 mm | - | - | - |
| 1787539466 | 13.89° C | 89% | 1011.3 hPa | 0.25 mm | - | - | - |
| 1787539165 | 13.89° C | 89% | 1011.5 hPa | 0 mm | - | - | - |
| 1787538865 | 13.89° C | 89% | 1010.6 hPa | 0 mm | - | - | - |
| 1787538535 | 13.89° C | 90% | 1010.6 hPa | 0 mm | - | - | - |
| 1787538205 | 13.33° C | 91% | 1010.6 hPa | 0 mm | - | - | - |
| 1787537906 | 13.33° C | 91% | 1010.6 hPa | 0 mm | - | - | - |
* Rain latest hour (hover to see other rain measurements)
** Current wind speed in m/s (hover to see current wind gust speed)